GFSNGP_250_spd_132.txt.gz
Wind_Speed
27 26 24 28 30 29 30 31 33 33 31 33 37 40 43 45 48 50 57 59 61 66 66 56 52 53 43 38 33 29 27 27 28 29 29 30 31 29 28 27 23 20 22 25
29 28 26 26 30 33 33 35 36 37 38 38 40 39 42 46 48 52 52 62 62 67 71 70 55 53 50 46 41 39 32 33 31 30 31 33 33 31 30 29 28 28 27 26
30 26 28 30 30 31 33 29 31 33 31 32 33 34 40 48 51 52 55 54 66 68 73 79 76 63 60 56 50 46 38 51 35 29 29 33 34 33 35 33 31 31 31 31
30 27 29 28 29 33 30 30 32 38 40 41 39 42 41 44 51 55 56 57 58 71 74 79 78 72 68 64 59 55 56 47 47 50 46 36 38 38 38 37 38 34 35 35
29 29 31 30 29 31 33 33 36 39 40 43 45 47 51 53 51 56 59 63 63 60 74 76 81 78 73 71 67 59 56 45 51 37 52 55 44 47 49 48 45 45 43 39
32 29 28 25 30 32 34 33 34 35 40 45 54 58 55 52 53 56 58 64 68 69 69 77 80 81 77 81 69 65 51 53 49 32 39 62 55 48 54 53 52 50 51 49
33 30 28 27 26 29 28 31 35 39 47 55 57 55 54 50 53 56 59 62 69 70 68 79 78 82 82 82 74 63 59 54 53 48 40 39 46 40 52 54 53 52 56 55
35 33 29 26 25 30 31 30 35 46 47 45 43 42 47 56 57 59 59 62 61 68 69 73 81 86 84 81 76 72 64 63 56 53 45 45 52 46 35 47 52 49 54 57
39 33 28 26 30 31 30 31 37 40 32 33 35 31 26 29 41 57 58 60 62 62 67 77 75 82 88 88 81 79 76 71 58 59 63 37 57 60 71 69 65 55 61 62
38 33 30 26 30 33 31 28 36 29 28 15 19 23 11 13 25 45 59 57 58 57 59 65 75 76 77 87 87 84 85 82 75 76 80 67 66 60 62 61 61 61 63 64
39 33 28 27 28 30 31 27 32 28 28 26 22 25 12 6 2 26 49 54 56 55 59 62 72 78 78 78 89 89 93 87 93 84 88 89 84 81 72 76 78 76 75 75
38 33 28 29 28 28 29 27 30 29 40 34 28 19 20 14 17 23 27 40 45 54 48 64 69 74 76 76 82 87 94 96 96 85 83 88 90 84 86 71 79 90 90 90
37 32 28 28 27 29 28 26 28 26 28 29 33 33 32 29 25 24 26 36 44 52 53 67 74 77 74 69 60 81 91 98 100 99 100 98 95 95 93 83 74 75 75 88
37 33 31 28 27 32 30 27 29 26 31 29 28 38 41 41 42 38 38 37 40 45 51 68 74 84 77 76 68 58 80 78 83 90 99 101 103 98 102 97 91 96 96 96
39 35 31 28 31 32 30 27 28 27 26 29 33 35 38 48 57 57 52 50 46 46 43 72 76 74 88 84 74 77 62 74 77 81 81 74 77 90 97 97 103 103 97 98
40 34 31 28 32 34 28 28 30 29 27 27 29 31 35 37 41 54 69 63 60 46 58 62 63 67 80 88 93 77 76 71 73 73 75 82 83 75 75 78 81 84 91 90
37 35 31 29 33 31 27 29 31 29 27 28 28 31 32 31 32 36 42 48 57 62 64 59 59 58 70 90 90 94 98 95 88 84 82 82 77 76 86 79 83 85 80 89
37 36 31 31 30 26 25 28 27 30 29 26 27 32 28 27 26 23 26 33 39 42 46 52 57 60 66 79 92 97 96 97 97 97 89 84 89 93 93 89 89 87 87 88
37 33 33 32 27 21 23 24 26 27 29 28 26 26 21 21 22 20 19 26 35 36 36 36 44 47 55 70 85 97 98 95 92 90 91 96 94 93 94 94 99 103 101 95
35 32 33 30 20 20 20 23 22 24 21 21 22 20 18 19 18 19 17 17 25 31 31 31 37 46 46 55 69 86 94 97 100 100 100 100 101 101 105 101 100 100 100 105
33 31 30 23 21 17 18 20 18 15 16 18 18 18 18 19 18 16 17 17 16 17 28 33 32 35 50 53 54 62 75 87 104 104 105 105 104 104 102 105 104 107 109 109
30 31 27 24 19 18 18 18 20 19 22 22 19 16 18 20 19 18 17 16 16 17 20 25 30 36 37 46 53 62 65 67 77 92 102 104 106 106 106 107 111 112 113 114
32 33 27 24 22 19 21 22 20 20 19 21 21 21 21 22 21 20 21 19 18 18 19 19 25 29 32 36 41 49 61 63 64 71 85 95 97 102 106 107 110 113 114 115
31 30 27 24 23 21 24 29 28 26 25 25 25 26 27 25 25 23 23 24 24 24 23 22 21 23 26 29 33 37 41 45 58 67 65 79 80 81 82 85 88 94 95 93
32 29 27 28 27 29 29 33 34 33 32 29 31 30 30 31 30 27 26 28 26 24 25 25 25 24 26 28 29 31 33 35 38 42 46 52 61 68 71 70 68 68 67 71
34 34 35 35 34 34 35 39 42 42 40 38 35 35 35 35 35 37 34 35 32 27 27 25 25 25 25 29 31 32 33 34 36 37 39 42 45 47 50 52 55 56 59 63
35 36 37 38 39 39 41 44 46 48 47 44 41 40 37 37 38 40 37 32 34 31 29 28 28 28 29 29 32 33 33 32 33 35 36 38 39 42 46 49 52 54 55 56

GFSNGP_250_spd_135.txt.gz
Wind_Speed
33 28 24 26 28 28 30 32 33 34 33 35 39 45 47 44 43 44 45 48 52 53 55 62 60 56 48 47 40 37 30 29 30 29 30 31 32 32 30 29 26 23 24 26
40 33 30 30 28 28 29 33 32 32 34 35 35 33 36 43 47 47 46 46 48 54 57 58 65 63 58 52 47 46 39 34 32 33 34 34 37 36 35 32 31 30 30 31
41 36 33 32 33 32 30 30 34 37 38 39 41 40 42 42 44 48 51 52 51 52 58 63 65 69 67 60 54 50 45 41 34 35 37 39 38 38 40 39 35 33 32 31
41 38 36 35 33 32 31 32 35 36 35 34 34 37 40 40 41 45 50 53 55 55 57 64 69 72 74 71 63 57 55 49 46 49 42 43 41 41 40 39 38 36 38 37
39 37 34 33 32 28 30 34 34 32 35 37 37 41 46 45 47 48 50 48 56 59 60 62 70 73 76 76 71 64 63 56 50 52 49 44 44 38 34 37 40 43 44 42
40 37 32 33 28 30 31 30 29 33 37 40 42 42 45 48 49 52 53 55 55 57 65 64 69 76 78 79 74 69 69 64 60 59 51 46 47 43 46 47 44 46 46 45
43 39 35 33 29 29 31 31 29 30 29 33 37 39 44 50 56 60 61 63 61 59 64 65 69 76 80 83 82 76 72 69 65 63 65 56 52 52 52 53 50 57 60 55
42 40 38 36 33 31 31 29 30 31 33 33 37 46 52 49 46 49 57 61 61 60 64 68 69 73 81 83 87 87 84 73 70 65 61 56 49 48 41 44 53 59 59 51
43 42 40 39 34 34 31 31 32 31 31 34 38 48 38 29 27 32 38 45 54 59 62 68 70 72 73 81 84 90 88 84 76 71 65 63 58 54 50 41 42 48 52 55
43 42 40 40 35 32 32 32 32 33 33 34 38 37 29 25 28 39 36 34 46 54 58 64 68 70 73 73 82 83 85 87 82 76 72 69 61 56 57 52 49 47 60 49
44 40 37 37 35 34 33 32 31 32 31 31 37 33 31 32 35 33 26 23 39 46 54 57 62 64 68 74 75 82 78 84 84 76 70 64 67 60 55 57 67 60 61 61
45 38 38 35 37 33 33 33 30 30 30 28 34 33 25 32 24 24 23 13 21 36 45 50 55 56 59 69 74 74 77 70 77 76 79 79 74 68 58 64 69 57 61 66
42 37 35 35 37 34 34 32 31 28 28 27 31 31 26 30 32 30 21 13 11 32 45 47 47 50 51 59 64 70 76 77 78 70 74 81 78 80 89 63 67 76 74 69
41 36 36 38 36 33 33 32 31 28 27 28 29 28 32 30 30 34 29 22 18 19 35 43 47 49 50 48 50 56 58 75 78 75 64 74 74 79 86 85 89 82 86 89
39 36 38 37 35 32 33 33 31 30 26 27 28 28 27 28 31 32 33 31 38 33 34 38 44 50 51 51 58 59 58 56 65 79 82 84 76 79 85 84 80 82 85 90
42 42 41 38 36 35 35 34 32 33 27 27 27 25 25 28 30 29 30 40 37 43 43 41 52 49 57 58 63 64 64 64 61 55 60 77 77 83 83 79 77 80 84 89
42 43 41 38 39 36 35 33 32 32 27 30 26 25 26 27 28 27 25 26 33 38 42 50 51 52 51 54 54 71 70 71 68 68 67 70 69 70 73 76 70 69 75 81
43 40 40 37 37 34 35 33 31 29 28 30 24 24 25 27 28 23 23 22 24 31 37 44 53 58 56 54 55 59 72 80 78 80 79 74 73 75 81 79 78 78 76 78
38 37 37 37 35 34 32 31 30 26 27 24 21 24 23 24 20 19 19 19 15 20 28 35 41 50 58 59 64 64 61 73 85 79 82 89 89 85 83 85 84 88 84 82
37 37 38 36 34 33 31 31 26 23 23 20 17 18 18 17 16 16 15 14 15 10 13 21 26 30 37 47 56 62 65 71 76 79 79 83 86 92 96 94 95 95 94 94
41 39 38 38 34 32 32 29 22 19 18 17 18 19 17 16 15 15 14 12 11 12 9 10 16 27 28 29 33 42 50 59 71 68 75 76 83 86 89 95 99 102 100 103
39 38 39 36 32 34 31 28 20 21 19 20 19 20 21 20 17 16 15 13 10 10 9 10 10 15 21 27 31 32 38 44 49 50 55 57 61 68 74 80 91 97 99 99
43 41 38 34 34 32 32 27 23 23 22 20 19 18 19 18 20 21 19 17 15 15 12 12 13 12 14 20 26 31 37 42 44 49 52 55 57 60 62 66 74 82 86 87
36 34 34 32 32 33 32 30 27 25 23 24 26 26 25 23 23 24 24 23 22 21 21 18 18 19 17 18 20 25 28 33 39 44 48 50 52 56 62 66 68 69 76 83
29 29 31 34 33 36 37 33 32 32 29 27 25 29 30 30 28 27 28 26 25 28 28 25 24 23 20 19 18 19 24 29 31 34 37 40 43 45 49 52 54 56 57 57
26 28 29 32 35 37 37 36 36 36 36 36 34 34 36 35 33 32 33 33 30 29 30 29 26 25 23 20 19 20 22 24 28 33 35 37 37 36 37 37 38 40 43 45
29 31 33 33 35 40 37 39 41 42 43 43 41 41 41 42 40 38 38 35 34 32 33 31 28 28 26 22 22 23 25 28 30 33 35 36 37 37 37 39 39 40 43 46

GFSNGP_250_spd_138.txt.gz
Wind_Speed
30 25 22 20 20 22 26 30 32 34 36 37 38 38 39 40 40 40 41 44 45 46 48 49 52 56 53 49 43 37 32 32 29 29 22 26 29 36 38 36 32 32 31 29
38 34 31 27 25 24 22 25 27 28 30 34 36 36 38 41 44 47 45 39 41 46 50 52 53 57 60 56 50 45 40 37 37 36 33 31 29 30 34 36 34 34 35 32
45 39 37 34 31 27 27 27 28 30 31 34 33 33 36 36 36 36 42 47 45 44 47 50 54 55 57 62 58 53 48 45 41 42 42 41 37 36 37 37 38 39 38 35
52 45 41 41 35 30 29 29 30 32 32 29 30 36 39 39 41 43 42 40 43 49 48 48 51 57 59 60 63 62 57 51 49 43 44 40 38 35 39 43 42 42 43 42
47 51 47 43 37 35 33 33 33 32 29 30 33 37 38 36 36 37 41 44 46 47 50 52 53 54 62 63 62 66 64 59 55 51 44 42 41 39 36 37 41 43 46 45
46 46 46 44 40 37 35 35 29 28 31 32 32 33 34 37 40 41 42 44 47 49 51 53 56 57 59 66 67 65 70 67 61 57 56 55 45 45 44 46 46 41 47 47
46 44 44 42 39 36 34 33 28 29 28 28 29 31 32 32 33 34 37 44 50 55 60 60 60 62 63 64 69 72 68 73 71 64 60 60 56 50 50 51 46 44 48 43
46 43 44 42 39 37 35 33 30 30 29 27 28 30 34 33 34 38 47 54 56 60 64 65 67 66 66 68 69 73 74 73 78 72 65 64 64 62 57 54 56 53 51 47
50 45 44 42 41 39 38 34 34 31 30 30 32 33 33 34 38 44 42 31 31 31 34 58 72 71 68 67 70 73 75 78 77 81 78 70 71 66 63 57 53 53 53 47
52 48 43 42 40 41 39 38 36 34 32 32 33 33 34 35 37 44 35 36 39 43 39 45 56 68 71 68 68 72 72 78 80 78 79 72 76 74 69 68 65 63 61 52
53 49 42 41 41 40 41 40 38 34 32 32 33 32 31 33 36 39 35 36 31 40 43 35 45 57 63 67 68 69 72 75 80 78 75 73 78 79 76 72 70 65 64 63
55 50 44 39 40 39 40 37 36 34 34 33 33 32 31 35 34 36 31 30 31 36 42 28 31 46 51 55 61 64 66 73 76 81 78 79 79 79 77 75 74 70 66 56
54 51 45 41 36 37 37 35 35 35 34 34 32 33 33 33 34 34 35 34 33 30 32 22 20 36 40 43 50 55 59 64 72 73 77 84 90 88 83 83 79 78 72 72
54 51 45 40 37 37 36 34 34 35 35 34 33 34 32 33 37 36 35 34 33 31 27 19 18 31 34 36 43 47 50 58 64 67 63 70 81 80 79 84 77 82 77 67
51 48 46 38 39 37 36 36 36 34 35 35 35 36 33 35 38 37 34 32 31 28 28 32 23 31 41 44 40 41 45 50 49 59 64 59 59 58 71 68 70 71 71 68
49 49 44 39 40 38 34 34 34 32 34 35 36 36 35 37 39 36 34 33 31 29 29 32 34 32 36 42 46 44 46 47 42 48 55 63 62 65 64 75 81 78 69 72
45 46 41 38 38 38 35 33 35 35 35 35 36 34 34 37 37 36 33 31 29 25 29 30 40 40 40 40 37 38 44 49 46 48 46 55 66 75 73 75 76 78 81 80
44 41 37 39 39 40 38 35 37 36 37 35 35 36 34 36 36 32 28 30 28 26 26 27 37 48 46 46 47 47 44 41 50 54 55 57 56 56 67 76 86 89 88 85
44 38 39 42 42 39 37 35 34 34 34 33 34 32 31 34 32 22 24 25 25 25 25 23 29 42 49 50 53 56 54 51 51 53 56 67 69 70 70 68 69 80 90 85
41 42 44 44 42 38 35 34 33 32 30 32 31 29 29 28 22 16 19 21 22 21 18 17 18 28 36 43 50 58 59 62 60 58 60 59 65 75 74 80 82 79 78 81
41 43 44 44 39 36 34 33 32 29 30 30 28 25 26 24 23 21 18 19 19 19 17 14 13 11 21 31 37 40 48 53 59 64 65 65 67 67 72 78 84 88 89 89
42 42 43 43 39 37 35 33 30 30 31 29 27 22 21 22 22 21 20 19 18 17 16 15 15 14 12 12 21 27 34 37 42 47 57 62 67 72 75 75 79 80 85 90
46 44 42 39 38 37 34 32 32 32 31 29 26 24 22 20 19 21 23 21 22 22 20 19 18 17 17 17 17 16 18 24 30 35 37 41 44 50 57 61 64 65 68 72
41 44 46 43 40 37 34 30 31 32 33 30 29 29 27 25 23 24 25 22 23 25 26 23 22 22 22 22 19 18 16 15 17 22 26 31 35 39 43 46 47 48 51 54
39 39 40 40 41 39 35 34 35 34 37 35 31 32 31 29 27 26 29 30 29 28 30 29 28 27 24 25 25 20 18 17 15 13 14 18 23 28 33 36 38 39 41 43
30 32 34 35 36 36 35 36 37 35 37 39 37 35 34 36 37 37 36 36 36 35 34 34 35 34 31 28 27 25 21 17 13 13 14 16 20 24 27 31 34 34 34 34
25 26 28 31 33 34 35 35 35 36 36 39 42 41 39 42 44 45 41 41 43 43 43 41 39 38 37 34 31 30 29 28 27 22 18 19 26 25 23 26 32 35 37 39

GFSNGP_250_spd_141.txt.gz
Wind_Speed
42 33 28 22 24 30 35 39 43 45 43 40 39 40 41 42 42 41 40 40 41 42 43 44 44 44 45 46 46 43 39 33 30 26 26 25 37 43 46 45 43 42 36 33
45 38 32 27 26 27 28 30 32 33 34 34 35 36 36 36 36 35 36 38 41 43 43 45 47 48 47 48 51 51 47 39 35 33 32 28 29 39 44 46 45 40 36 34
47 43 36 34 33 30 29 29 28 29 30 31 33 34 34 34 34 35 37 39 40 40 40 43 47 50 51 51 51 54 52 46 42 38 40 33 34 31 37 47 48 44 40 38
52 47 42 39 35 32 30 28 26 27 29 29 27 29 30 32 32 31 30 32 33 34 38 44 44 47 52 53 53 53 56 54 50 47 44 44 41 37 36 37 39 44 46 41
53 51 49 46 42 37 33 29 27 25 24 26 29 30 29 30 30 32 34 36 38 40 41 39 43 48 47 54 57 57 58 60 58 55 51 48 47 45 43 41 37 40 42 43
57 52 52 50 46 42 39 36 29 28 28 28 28 28 27 28 30 31 34 35 36 35 37 44 45 46 51 53 56 61 62 62 64 63 60 56 54 51 50 49 46 46 45 45
60 53 52 52 47 42 39 36 33 31 31 31 29 28 27 24 26 27 30 33 36 39 40 43 46 50 53 55 59 60 62 65 66 69 70 65 61 57 56 52 51 49 46 46
58 54 52 50 50 49 45 40 36 34 33 31 28 26 26 26 27 27 28 29 31 35 40 45 49 55 57 58 60 64 65 66 68 69 72 73 67 64 59 56 52 51 46 49
60 57 49 48 47 45 43 40 39 37 34 32 29 26 27 28 29 29 31 33 35 39 45 51 53 55 62 63 66 69 70 69 69 71 72 75 74 68 68 63 61 56 52 53
63 60 51 45 42 39 39 39 39 39 36 32 32 28 29 29 30 32 33 33 35 39 46 43 45 49 49 49 71 75 72 72 72 71 73 73 76 75 70 69 67 61 59 59
64 60 53 46 40 35 36 35 38 38 37 34 34 32 30 29 32 33 32 33 35 37 39 33 40 48 61 54 61 65 71 72 74 72 72 74 73 79 77 74 72 70 70 71
67 62 52 46 41 37 37 36 35 34 34 35 36 34 33 32 34 34 33 34 35 37 39 31 36 42 42 49 56 55 59 70 72 70 70 75 74 72 77 77 76 76 73 74
66 60 55 51 46 40 37 36 35 34 34 35 35 35 35 34 36 35 34 35 37 40 41 39 36 33 34 30 33 43 53 60 69 68 67 69 74 70 72 46 70 72 79 75
66 63 59 53 45 39 38 37 35 33 34 34 35 36 35 36 36 34 36 37 37 39 41 36 35 34 26 21 19 28 38 46 54 60 65 65 66 68 66 67 60 56 67 64
67 66 60 51 45 40 38 38 35 33 34 35 36 35 35 35 35 36 37 38 39 42 41 37 32 29 27 21 27 30 32 35 38 45 51 60 61 64 64 63 63 59 53 55
61 59 54 50 45 40 39 39 36 33 33 34 35 34 34 32 34 36 36 37 39 43 38 37 30 27 30 28 28 31 32 34 35 39 44 48 54 55 65 66 71 74 58 56
55 54 48 44 39 37 36 36 33 33 32 32 32 33 33 33 34 34 36 36 40 40 36 32 28 28 32 36 34 33 38 37 35 35 39 44 44 50 52 61 66 71 82 85
49 47 43 39 38 36 34 34 35 35 32 30 31 33 35 35 32 33 33 36 37 33 32 28 27 25 29 36 42 39 36 40 41 41 40 43 45 48 61 64 59 56 60 66
44 43 40 39 35 35 37 37 37 36 33 33 33 33 33 32 31 30 30 31 27 28 26 25 23 21 20 30 41 45 44 41 40 39 40 45 49 47 55 72 71 71 74 77
39 38 39 43 42 40 38 38 38 35 34 32 32 31 31 30 30 26 26 25 27 23 22 20 20 22 16 15 28 44 50 48 47 47 47 45 47 50 54 53 69 80 80 82
36 35 36 41 41 37 37 39 37 34 32 32 31 31 30 30 28 26 23 23 23 19 18 18 17 17 16 15 11 21 32 48 57 58 57 57 53 53 55 61 64 65 67 68
39 40 41 39 39 39 40 38 34 34 35 32 31 31 31 31 27 25 23 21 19 18 16 17 18 19 18 17 14 12 11 19 30 40 52 59 63 64 62 63 65 69 72 74
36 35 34 35 37 36 33 33 35 36 35 33 32 32 31 31 28 28 27 23 24 23 22 21 21 20 20 20 21 20 17 15 16 21 29 37 43 52 59 63 68 69 71 74
35 35 36 36 35 35 37 37 37 38 37 34 32 34 33 34 32 30 31 29 28 28 25 25 27 28 26 26 25 26 24 22 21 20 20 22 28 32 37 42 47 52 57 61
37 38 40 41 40 41 42 40 38 39 39 36 35 37 36 36 37 33 35 35 32 30 31 32 32 31 31 32 32 33 32 27 23 23 21 20 18 19 23 27 30 33 36 39
36 36 36 37 39 41 40 36 36 37 38 37 37 39 37 38 41 40 38 38 39 39 40 40 40 40 38 37 38 39 36 33 28 25 24 22 20 19 17 18 24 26 30 34
32 34 36 37 37 39 39 37 35 35 34 34 34 36 37 39 42 43 42 42 44 43 42 45 46 45 44 43 43 44 40 36 34 28 28 34 34 33 30 27 30 27 28 28

GFSNGP_250_spd_144.txt.gz
Wind_Speed
45 47 48 45 41 37 38 41 44 48 49 48 47 46 44 44 42 40 38 37 37 37 37 38 38 38 39 40 41 43 41 36 31 26 27 28 34 37 42 43 45 44 45 42
46 49 48 45 40 36 39 42 45 47 49 48 47 46 44 43 41 39 39 40 40 40 40 40 42 43 43 42 42 45 46 45 40 36 31 31 34 39 41 44 47 49 49 44
48 52 50 45 40 35 37 41 44 45 46 45 45 43 42 39 39 41 41 40 39 40 41 41 42 44 47 47 46 45 47 49 48 44 40 37 37 37 45 49 49 53 51 51
52 55 50 50 41 36 35 36 40 39 38 39 41 40 37 39 41 39 37 36 38 39 41 39 40 42 46 48 50 49 48 50 53 51 47 44 42 40 41 50 54 55 53 51
51 57 56 53 45 38 34 31 32 34 35 35 34 35 36 34 31 31 30 31 31 33 34 34 35 37 43 47 48 51 52 52 53 57 56 52 50 47 44 43 46 52 55 55
56 58 56 55 48 43 37 34 32 30 30 29 29 29 26 27 26 27 28 30 31 33 36 38 39 39 39 41 48 49 54 56 57 58 62 62 59 54 52 48 47 47 52 56
58 62 58 56 52 46 42 40 36 32 28 26 25 25 24 25 25 26 26 27 27 29 32 34 37 39 42 43 46 48 54 56 60 62 62 66 67 63 58 55 52 51 49 49
62 63 60 58 56 51 46 43 40 37 35 33 31 28 25 25 24 24 24 25 26 27 30 32 34 36 39 45 49 52 55 58 60 62 66 67 70 70 67 62 58 58 55 53
62 64 65 59 61 58 55 51 48 44 40 37 33 29 27 25 25 25 26 27 30 30 30 33 33 36 41 44 49 54 57 61 64 65 66 69 72 73 74 71 67 64 62 58
61 62 62 61 60 58 56 52 48 43 40 37 33 30 28 28 26 27 27 27 28 30 31 31 32 36 38 48 51 54 59 62 65 68 69 71 74 76 75 77 75 70 66 63
58 58 62 64 63 55 49 48 47 47 43 39 35 32 30 30 30 29 30 30 29 31 32 31 33 37 42 45 44 48 54 60 67 68 74 76 75 74 76 78 78 78 72 68
62 63 66 64 59 53 46 42 40 40 39 38 36 34 33 33 33 34 34 34 33 34 34 34 36 40 41 44 41 47 51 57 63 69 72 73 74 76 75 77 79 79 77 74
63 64 61 58 53 48 43 43 42 42 38 38 36 34 33 35 36 38 36 36 36 36 36 38 40 42 45 47 40 38 39 45 50 57 62 58 58 76 74 75 75 74 76 78
57 60 57 51 48 46 43 42 43 43 40 37 35 33 32 33 34 36 36 36 37 38 38 39 41 42 48 44 38 28 30 29 25 37 45 54 59 68 72 72 71 69 69 69
57 60 58 54 51 48 43 40 40 40 39 36 34 33 33 32 33 34 35 37 38 38 37 38 40 45 45 39 35 27 23 20 25 26 29 37 47 59 66 65 67 66 61 51
56 60 55 50 49 50 46 40 37 37 37 36 34 32 31 32 33 34 35 37 38 37 37 38 41 43 37 35 34 30 26 20 21 22 23 27 33 40 56 63 60 57 53 54
60 60 52 48 47 49 47 40 37 36 34 34 34 31 31 32 34 34 36 37 36 35 35 37 39 37 35 32 32 33 31 27 26 26 28 29 33 38 42 50 56 58 57 66
53 48 49 49 48 46 45 43 38 35 32 33 32 32 33 33 32 33 34 35 33 32 33 35 34 34 30 29 29 31 32 33 32 33 30 29 31 34 38 43 47 50 55 63
39 41 48 52 48 44 42 39 38 35 32 33 34 33 32 30 31 34 35 34 30 29 29 28 29 28 25 26 25 23 31 35 36 35 36 37 35 35 35 41 43 47 57 67
37 39 41 45 44 42 43 41 40 36 32 34 36 36 35 34 36 35 32 30 29 28 26 24 24 23 22 21 20 16 20 35 39 38 36 33 35 37 41 43 47 59 61 62
37 39 38 38 37 40 46 45 42 38 35 37 39 38 37 36 34 32 31 29 28 27 25 22 23 23 21 21 19 15 13 17 32 42 46 46 44 43 42 43 49 54 59 68
33 33 34 36 36 38 39 42 43 40 37 39 39 38 37 34 33 31 31 31 29 27 25 23 22 23 23 21 19 17 16 15 13 17 34 48 53 53 50 50 50 52 55 58
29 29 29 31 31 33 39 44 42 40 40 40 38 36 34 34 33 33 34 32 32 30 29 27 25 23 22 20 21 22 22 20 21 22 21 21 23 33 45 56 63 63 61 62
34 34 33 35 37 34 32 38 43 42 39 38 37 35 37 35 34 34 35 34 34 33 31 30 29 28 26 25 25 25 24 26 28 28 29 27 26 26 25 26 35 45 55 64
34 34 33 32 35 37 36 37 37 38 38 37 38 38 39 39 38 34 37 35 35 37 38 35 34 34 33 32 31 31 31 30 30 31 33 33 32 30 27 25 24 25 27 32
36 36 37 38 38 38 38 39 41 41 41 39 39 39 38 39 40 39 39 39 39 39 41 40 38 35 36 36 37 36 34 35 34 32 35 33 32 31 30 27 27 28 25 25
33 39 43 43 42 42 42 43 44 45 44 43 41 39 39 40 41 40 41 41 43 41 41 42 41 39 38 40 40 39 39 39 38 39 38 35 31 33 30 34 36 38 38 37

GFSNGP_250_spd_147.txt.gz
Wind_Speed
53 53 46 43 42 43 46 46 43 42 40 41 54 51 50 48 46 42 37 37 37 37 36 37 37 37 36 36 38 41 43 42 37 30 26 24 24 26 32 33 34 38 48 53
57 53 49 43 45 45 47 46 43 43 43 44 50 51 49 48 46 43 44 43 42 41 39 37 38 38 40 40 40 39 42 44 43 36 34 28 29 30 34 36 37 39 45 51
55 49 48 44 44 46 47 46 45 43 43 44 47 52 51 49 47 46 45 45 44 41 39 40 41 42 43 42 44 43 41 42 46 46 42 40 33 34 38 42 41 45 46 48
46 47 46 41 47 48 47 46 45 41 38 40 48 49 50 49 48 47 45 43 41 40 40 42 43 44 44 44 45 47 47 44 45 49 50 48 44 41 42 45 47 49 49 51
44 41 38 46 45 50 48 45 43 38 37 42 46 48 48 48 47 45 43 41 39 39 40 42 42 40 41 43 45 46 49 49 48 49 52 54 54 50 47 45 49 52 53 53
41 39 39 49 52 50 47 46 39 36 36 42 45 45 43 44 44 41 37 36 37 37 37 38 37 36 37 38 39 43 46 49 52 53 53 56 59 59 56 53 52 51 55 55
40 38 38 55 52 50 51 46 38 33 34 37 40 37 39 38 34 33 33 33 32 32 34 34 35 35 36 37 40 41 42 43 48 53 57 58 60 63 64 62 58 54 54 57
41 44 52 55 53 58 50 47 38 34 32 31 31 33 33 31 29 28 29 30 29 31 31 28 28 29 30 34 37 41 44 46 47 48 54 59 63 64 66 69 67 63 59 58
46 45 55 51 58 52 52 49 42 40 38 36 34 33 32 32 30 28 29 30 28 27 26 26 27 29 30 32 34 36 38 41 44 49 54 59 65 68 71 71 72 71 68 67
46 52 55 34 58 61 57 53 48 47 44 42 39 37 33 31 29 30 30 29 28 26 25 25 27 30 32 33 34 36 39 41 45 49 55 61 68 71 73 74 74 75 75 74
46 54 64 69 58 60 61 59 54 52 50 46 42 37 34 33 32 31 31 30 28 28 28 28 29 31 32 35 38 41 43 44 48 52 53 61 71 75 75 76 76 77 76 79
45 53 61 66 65 62 62 64 60 56 52 48 44 42 40 37 35 33 33 33 32 32 32 33 33 34 36 39 43 45 48 49 52 57 57 56 65 74 74 78 77 76 78 78
39 50 56 65 63 64 63 64 63 58 54 51 49 47 42 40 38 37 35 35 37 37 37 37 38 39 40 43 45 48 50 50 56 57 51 47 50 60 69 75 78 78 75 75
47 48 54 58 62 67 63 58 55 53 53 50 50 48 44 42 40 38 38 38 38 38 39 39 40 40 43 45 47 48 50 55 52 44 39 35 37 45 55 65 74 76 77 76
44 49 55 61 65 61 58 55 51 50 47 45 45 43 43 42 40 40 39 38 37 35 38 40 40 41 44 46 46 48 53 52 38 32 32 31 26 26 30 46 57 65 70 72
43 46 53 60 54 53 52 49 46 44 45 44 39 40 43 41 43 41 41 38 35 35 36 38 40 42 43 43 43 49 49 41 32 29 31 29 30 27 25 24 42 58 59 60
42 46 47 48 49 49 45 41 41 38 36 39 42 44 43 44 44 40 38 35 35 35 37 38 40 41 41 40 43 42 40 35 33 29 30 25 27 20 24 21 22 39 53 58
34 39 44 45 44 45 41 38 36 37 36 36 39 42 42 42 40 39 35 34 34 35 36 38 38 37 37 38 38 37 37 32 29 26 31 29 27 31 31 30 31 29 34 44
40 44 48 49 45 41 38 34 36 37 35 35 36 39 38 36 36 35 35 36 35 35 35 36 35 34 33 34 33 31 32 27 21 22 26 31 30 30 29 31 32 37 38 40
39 41 42 38 35 37 39 36 38 37 36 37 41 39 36 37 35 35 33 33 34 36 36 33 32 32 31 28 25 26 25 26 18 14 24 28 30 33 33 31 33 36 38 43
34 33 32 34 34 35 37 38 38 37 40 42 43 42 36 35 34 35 35 35 36 36 34 32 31 31 30 27 22 21 21 19 19 15 11 22 30 32 31 31 36 36 37 39
33 32 32 32 31 33 36 38 38 40 44 44 44 43 36 35 37 38 37 37 37 35 33 31 30 32 31 27 23 20 19 18 17 16 13 10 10 22 37 43 42 40 40 43
31 31 33 34 34 34 34 35 39 42 46 48 44 42 40 38 39 39 38 37 35 34 33 33 31 31 32 30 27 24 21 20 21 21 20 19 17 16 17 21 27 39 51 54
31 33 35 34 34 34 34 35 35 35 40 44 46 44 43 40 40 40 37 36 35 36 36 35 34 33 34 33 33 31 29 26 25 25 24 25 25 24 25 23 23 25 29 31
25 31 32 30 31 32 34 32 31 37 39 41 40 44 47 45 40 40 40 40 39 39 39 37 36 33 35 37 37 36 35 33 29 29 28 28 29 29 29 31 31 28 25 24
25 30 33 33 32 32 32 32 33 31 34 37 40 41 43 44 45 43 43 42 44 43 43 43 39 39 37 39 41 41 40 36 34 34 33 32 33 33 33 36 35 32 28 25
28 30 32 33 33 35 37 37 39 39 39 38 39 37 42 48 48 47 45 46 46 45 45 45 44 42 41 40 40 39 40 39 38 38 39 38 37 37 36 38 41 36 31 30

GFSNGP_250_spd_150.txt.gz
Wind_Speed
45 45 46 43 43 44 39 37 38 42 42 41 36 30 36 42 56 53 35 35 38 37 39 38 35 33 32 32 31 33 37 38 36 32 27 23 21 21 22 26 28 29 33 37
48 50 50 49 49 44 40 41 39 42 42 42 41 32 35 43 50 50 51 47 43 44 43 42 38 37 36 34 33 32 32 36 42 41 38 32 28 25 23 27 28 28 31 34
52 56 56 49 47 52 46 43 41 41 45 48 40 32 32 39 31 28 42 52 50 50 47 44 43 41 39 37 37 36 36 36 38 43 46 45 38 35 31 29 26 28 33 35
55 60 58 49 50 51 52 44 42 43 51 41 40 32 33 38 41 47 45 65 56 54 50 47 46 45 42 41 40 40 39 41 41 42 44 46 46 45 42 36 31 29 40 43
56 58 55 52 51 47 46 40 42 47 45 42 37 37 39 42 53 49 4 43 51 49 48 47 47 46 45 43 42 42 44 43 44 45 46 46 46 50 49 44 41 39 42 51
55 56 52 45 47 46 45 44 45 43 47 45 37 40 38 43 48 58 60 54 44 44 46 45 46 45 44 42 42 44 43 44 46 47 48 50 51 50 54 54 51 52 54 51
53 45 41 43 42 38 40 41 44 46 42 41 39 36 39 45 47 51 52 52 47 46 45 46 45 44 40 38 39 38 39 41 43 45 48 50 53 55 56 59 60 59 59 57
39 34 37 32 27 23 30 35 44 40 43 37 40 37 37 41 44 44 46 48 45 43 45 42 39 38 34 35 35 35 37 38 40 42 44 46 51 55 60 61 63 66 66 64
36 39 40 34 34 30 41 50 44 46 40 40 37 34 36 39 40 42 43 42 41 39 41 35 34 32 32 31 31 32 32 34 36 39 43 47 50 53 57 63 67 68 70 72
41 57 51 35 32 46 34 55 54 47 43 39 34 32 35 37 37 37 37 36 35 35 35 33 30 30 29 29 27 28 31 33 35 37 40 42 47 53 59 61 65 69 74 74
39 47 53 43 49 56 63 56 54 49 45 42 38 36 36 36 36 36 35 33 31 30 31 31 31 30 28 27 27 29 32 35 37 39 42 45 48 52 55 59 64 70 74 78
33 38 44 43 50 38 30 52 55 50 49 47 44 41 40 39 37 33 31 30 30 32 32 31 30 30 29 30 32 34 36 38 41 43 46 48 51 55 59 59 62 71 77 77
40 38 37 41 58 58 65 53 59 51 51 51 49 46 44 41 38 36 33 32 32 33 33 32 32 32 33 35 36 38 39 43 45 47 49 51 53 56 60 64 65 65 71 75
24 22 28 37 64 62 63 50 57 58 56 56 52 49 46 44 40 36 35 35 35 35 33 34 35 36 37 39 39 40 43 46 49 51 52 53 57 61 54 49 47 49 56 65
25 26 29 31 55 72 68 57 60 60 56 57 53 50 48 46 43 39 40 39 38 37 36 36 36 38 38 40 39 40 44 49 49 51 53 58 56 50 41 37 41 42 41 49
39 41 20 22 33 47 68 72 62 57 52 53 54 51 49 47 45 45 45 44 41 39 38 36 37 39 38 37 39 40 46 47 47 52 56 53 47 42 39 29 23 29 35 41
25 18 15 22 28 38 45 57 61 57 51 49 50 53 52 48 44 40 42 42 41 40 38 38 38 37 35 37 39 43 43 41 48 55 52 48 40 37 34 32 32 29 27 20
20 20 29 31 33 45 49 51 56 55 50 49 48 47 45 41 37 37 39 39 39 38 38 38 37 34 35 36 39 40 37 40 46 47 46 40 30 31 29 28 30 27 23 25
40 29 40 44 46 40 45 40 42 44 41 45 44 43 44 41 39 40 41 42 40 37 37 37 34 35 35 37 38 35 33 35 39 42 42 33 24 24 25 25 28 28 30 25
49 52 64 59 52 46 39 36 35 37 37 40 46 42 34 33 34 37 40 40 36 35 37 38 33 33 36 38 35 32 31 33 32 33 35 33 21 21 23 26 31 33 32 34
53 57 64 61 53 47 43 33 33 34 39 40 38 32 33 32 32 34 35 34 35 35 35 34 34 37 37 36 34 31 30 30 27 26 27 26 26 19 21 26 27 30 33 34
36 51 57 62 57 36 19 26 30 34 37 40 35 34 33 35 36 37 37 37 36 35 36 38 39 39 38 35 34 31 31 31 29 26 23 23 22 21 20 20 22 30 35 36
32 32 33 33 32 35 31 44 35 34 39 42 41 40 38 34 37 40 41 38 39 40 40 41 42 41 39 36 36 35 34 33 32 31 30 28 24 23 23 22 22 20 20 26
19 29 31 32 35 46 52 46 36 33 35 38 42 43 41 42 38 39 41 42 43 42 41 42 42 41 40 38 38 37 36 35 36 36 36 34 31 29 28 29 27 26 26 26
27 29 32 34 32 35 39 38 34 34 35 36 39 39 42 41 42 43 44 46 47 47 46 43 40 42 42 42 42 40 40 39 36 37 39 39 34 31 33 33 34 34 33 29
36 31 29 30 31 36 37 34 33 33 30 30 30 30 30 30 33 36 39 46 48 51 52 50 48 45 45 46 47 46 45 44 44 42 39 37 34 34 33 35 37 37 37 35
25 24 22 26 31 32 31 30 31 32 32 34 34 30 26 27 31 31 27 36 42 50 53 55 54 52 51 51 50 49 48 47 45 45 42 40 38 37 38 37 40 41 40 38